EXPRESS-AM6

Last updated on Thu Jul 03 2025 00:02:46 GMT+0000 (Coordinated Universal Time)

1 40277U 14064A 25183.56086475 .00000105 00000+0 00000+0 0 9999 2 40277 0.0142 318.9958 0000858 255.1150 321.6317 1.00272237 38066
UTC large
Height (km)
Speed (km/s)
/
Latitude / Longitude
Inclination (degrees)
Orbital Period (minutes)
Azimuth
Elevation
Range (km)
Doppler Factor

Next 0 passes for location: London (51.5072 / 0.1276)

Sorry there are no passes over London.